[Date Prev][Date Next][Thread Prev][Thread Next] - [Date Index][Thread Index][Author Index]
2 Line ISS Keps 7-23
- Subject: [sarex] 2 Line ISS Keps 7-23
- From: "Dave Larsen PhD" <doc@xxxxxxxxxxx>
- Date: Mon, 23 Jul 2001 02:58:56 -0700
ISS
1 25544U 98067A 01204.16035569 .00061664 00000-0 77405-3 0 2444
2 25544 51.5851 266.6820 0012655 296.8873 105.3861 15.59028063152707
----
Via the sarex mailing list at AMSAT.ORG courtesy of AMSAT-NA.
To unsubscribe, send "unsubscribe sarex" to Majordomo@amsat.org
AMSAT Home